Preview of NWS' New Version of Forecast
This preview is not operational and should not be used for support decisions.

Regional Weather Roundup (RWR)

Issued by National Weather Service (NWS)

                            
000
ASUS45 KBOU 160210
RWRCO 

WEATHER ROUNDUP FOR COLORADO
NATIONAL WEATHER SERVICE DENVER/BOULDER CO
800 PM MDT SAT JUN 15 2019

NOTE: "FAIR" INDICATES FEW OR NO CLOUDS BELOW 12000 FEET WITH NO
SIGNIFICANT WEATHER AND/OR OBSTRUCTIONS TO VISIBILITY.

COZ001>005-013-030-031-160300-
...NORTHWEST COLORADO...
  
CITY           SKY/WX    TMP DP  RH WIND       PRES   REMARKS
CRAIG          FAIR      69  48  47 SE7       30.04R                  
HAYDEN         FAIR      67  48  50 SE8       30.09R                  
MEEKER         FAIR      67  47  48 CALM      30.04S                  
RANGELY        FAIR      79  27  15 W8        29.97R                  
RABBIT EARS PA NOT AVBL                                               
STEAMBOAT SPGS FAIR      67  41  38 CALM      30.10R                  
WALDEN         FAIR      59  34  38 E9        30.20R                  
$$

COZ006>008-011-160300-
...WEST CENTRAL VALLEYS...
  
CITY           SKY/WX    TMP DP  RH WIND       PRES   REMARKS
GRAND JUNCTION FAIR      82  36  19 NW7       29.93R                  
MONTROSE       FAIR      75  35  23 W6        30.02R                  
EAGLE          FAIR      69  42  37 NE9       30.09R                  
RIFLE          LGT RAIN  71  54  54 S6        29.99S                  
DELTA          FAIR      80  35  19 E7        29.97R                  
NUCLA          MOCLDY    73  41  31 E6        30.05R                  
$$

COZ017>023-064>068-160300-
...SOUTHWEST COLORADO...
  
CITY           SKY/WX    TMP DP  RH WIND       PRES   REMARKS
DURANGO        FAIR      61  44  53 CALM      30.10R                  
CORTEZ         FAIR      66  52  60 CALM      30.04R                  
PAGOSA SPRINGS FAIR      66  37  34 SE5       30.16R                  
TELLURIDE      FAIR      57  39  51 E3        30.29R                  
WOLF CREEK PAS FAIR      45  28  53 CALM      30.47R                  
$$

COZ009-010-012-014-032>034-037-058>063-160300-
...CENTRAL COLORADO...
  
CITY           SKY/WX    TMP DP  RH WIND       PRES   REMARKS
ASPEN          CLOUDY    63  37  38 SE12G23   30.17R                  
BUENA VISTA    FAIR      56  41  57 W8        30.23S                  
COPPER MTN     FAIR      45  34  65 SW5       30.45R                  
BERTHOUD PASS  FAIR      34  27  75 CALM      30.47R                  
COTTONWOOD PAS FAIR      48  37  66 W10G17    30.34R                  
GUNNISON       FAIR      60  41  49 N7        30.18R                  
GRANBY         FAIR      59  40  49 SE5       30.22R                  
KREMMLING      FAIR      63  39  42 E8        30.16R                  
LEADVILLE      MOCLDY    46  38  73 E3        30.33R                  
MONARCH PASS   DRIZZLE   41  34  75 MISG      30.54R                  
SALIDA         MOCLDY    61  45  56 SE10      30.27S                  
SUNLIGHT       FAIR      46  32  57 W6        30.38R                  
WILKERSON PASS CLOUDY    41  37  87 CALM      30.44S                  
$$

COZ069>075-160300-
...SAN LUIS VALLEY/SANGRE DE CRISTO MOUNTAINS...
  
CITY           SKY/WX    TMP DP  RH WIND       PRES   REMARKS
ALAMOSA        MOCLDY    60  40  47 SE8       30.16S                  
DEL NORTE      FAIR      59  38  45 SE7       30.19R                  
LA VETA PASS   NOT AVBL                                               
SAGUACHE       FAIR      63  37  39 CALM      30.17S                  
$$

COZ035-036-038>040-160300-
...NORTHERN COLORADO FRONT RANGE...
  
CITY           SKY/WX    TMP DP  RH WIND       PRES   REMARKS
DENVER INTL AP MOCLDY    63  48  58 S14       30.05F                  
AURORA         MOCLDY    66  48  51 NE10      30.08R                  
FRONT RANGE AP MOCLDY    64  50  59 SW8       30.06S                  
ERIE MUNI ARPT NOT AVBL                                               
BOULDER MUN AP FAIR      70  45  40 E3        30.05R                  
CENTENNIAL     MOCLDY    66  46  48 SW7       30.08S                  
BROOMFIELD     MOCLDY    72  46  40 NE8       30.08R                  
FORT COLLINS   LGT RAIN  67  48  50 NE14      30.05R                  
LONGMONT       MOCLDY    72  46  39 S5        30.04F                  
$$

COZ041-046-047-076>085-087-088-160300-
...PIKES PEAK/PALMER DIVIDE AND SOUTHERN FOOTHILLS...
  
CITY           SKY/WX    TMP DP  RH WIND       PRES   REMARKS
COLO. SPRINGS  MOCLDY    62  46  55 NW9       30.11F                  
A. F. ACADEMY  FAIR      59  50  72 N3        30.11F                  
SCHRIEVER AFB  NOT AVBL                                               
CHEYENNE MTN   NOT AVBL                                               
ELLICOTT         N/A    N/A N/A N/A N3        30.10R                  
FALCON         FAIR      60  45  57 N8        30.16S                  
FORT CARSON    MOCLDY    60  53  77 S6        30.09R                  
LIMON          FAIR      65  49  56 SW5       30.06F                  
MONUMENT HILL  FAIR      55  45  67 W5        30.17F                  
CANON CITY     FAIR      64  50  59 NW5       30.07S                  
WALSENBURG     NOT AVBL                                               
TRINIDAD       CLOUDY    56  53  90 SE9       30.15R                  
$$

COZ042>045-048>051-090-091-160300-
...NORTHEAST COLORADO...
  
CITY           SKY/WX    TMP DP  RH WIND       PRES   REMARKS
GREELEY ARPT   CLOUDY    68  48  49 NE9       30.05R                  
AKRON          FAIR      70  50  49 SE3       30.01R                  
BURLINGTON     FAIR      74  52  46 E10       29.98R                  
WRAY           FAIR      73  46  38 E3        29.96R                  
YUMA           FAIR      70  14  11 E5        29.98R                  
STERLING       FAIR      73  50  43 NE3       29.97R                  
HOLYOKE        FAIR      79  48  34 NE3       29.96R                  
FORT MORGAN    MOCLDY    69  48  46 W8        30.02R                  
$$

COZ086-089-092>099-160300-
...SOUTHEAST COLORADO...
  
CITY           SKY/WX    TMP DP  RH WIND       PRES   REMARKS
PUEBLO         FAIR      65  53  65 S5        30.05R HAZE             
LA JUNTA       LGT RAIN  61  55  81 S15       30.03F                  
LAMAR          TSTM      60  55  83 NW17G31   30.00R                  
SPRINGFIELD      N/A     55  55 100 NW17G31   30.04R                  
$$